This is the latest recevied weather packets stored in our database for station/object WC4PEM-15. If no packets are shown the sender has not sent any weather packets the latest 1 day(s).
| Time | Temp. | Humidity | Pressure | Rain* | Wind** | Luminosity | Snow |
|---|---|---|---|---|---|---|---|
| 1778019600 | 28.89° C | 52% | 1014.2 hPa | 0 mm | 5.81 m/s, 115° | - | - |
| 1778019300 | 28.89° C | 52% | 1014.2 hPa | 0 mm | 5.36 m/s, 117° | - | - |
| 1778019122 | 29.44° C | 51% | 1014.2 hPa | 0 mm | 4.47 m/s, 100° | - | - |
| 1778019000 | 29.44° C | 51% | 1014.2 hPa | 0 mm | 4.47 m/s, 100° | - | - |
| 1778018794 | 29.44° C | 50% | 1014.3 hPa | 0 mm | 3.58 m/s, 98° | - | - |
| 1778018700 | 29.44° C | 50% | 1014.3 hPa | 0 mm | 3.58 m/s, 98° | - | - |
| 1778018497 | 29.44° C | 50% | 1014.1 hPa | 0 mm | 4.02 m/s, 68° | - | - |
| 1778018400 | 29.44° C | 50% | 1014.1 hPa | 0 mm | 4.02 m/s, 68° | - | - |
| 1778018100 | 29.44° C | 50% | 1014.1 hPa | 0 mm | 4.47 m/s, 96° | - | - |
| 1778017904 | 29.44° C | 51% | 1014.2 hPa | 0 mm | 4.47 m/s, 97° | - | - |
| 1778017800 | 29.44° C | 51% | 1014.2 hPa | 0 mm | 4.47 m/s, 97° | - | - |
| 1778017560 | 29.44° C | 50% | 1014.3 hPa | 0 mm | 4.92 m/s, 102° | - | - |
| 1778017500 | 29.44° C | 50% | 1014.3 hPa | 0 mm | 4.92 m/s, 102° | - | - |
| 1778017270 | 28.89° C | 51% | 1014.2 hPa | 0 mm | 5.36 m/s, 87° | - | - |
| 1778017200 | 28.89° C | 51% | 1014.2 hPa | 0 mm | 5.36 m/s, 87° | - | - |
| 1778016958 | 29.44° C | 50% | 1014.2 hPa | 0 mm | 4.92 m/s, 111° | - | - |
| 1778016900 | 29.44° C | 50% | 1014.2 hPa | 0 mm | 4.92 m/s, 111° | - | - |
| 1778016660 | 29.44° C | 50% | 1014.1 hPa | 0 mm | 4.02 m/s, 90° | - | - |
| 1778016600 | 29.44° C | 50% | 1014.1 hPa | 0 mm | 4.02 m/s, 90° | - | - |
| 1778016411 | 29.44° C | 48% | 1014 hPa | 0 mm | 3.58 m/s, 118° | - | - |
| 1778016300 | 29.44° C | 48% | 1014 hPa | 0 mm | 3.58 m/s, 118° | - | - |
| 1778016065 | 29.44° C | 49% | 1014.3 hPa | 0 mm | 3.58 m/s, 115° | - | - |
| 1778016000 | 29.44° C | 49% | 1014.3 hPa | 0 mm | 3.58 m/s, 115° | - | - |
| 1778015700 | 29.44° C | 49% | 1014.3 hPa | 0 mm | 4.02 m/s, 109° | - | - |
| 1778015400 | 29.44° C | 49% | 1014.1 hPa | 0 mm | 4.02 m/s, 99° | - | - |
* Rain latest hour (hover to see other rain measurements)
** Current wind speed in m/s (hover to see current wind gust speed)